Time,TemperatureF,DewpointF,PressureIn,WindDirection,WindDirectionDegrees,WindSpeedMPH,WindSpeedGustMPH,Humidity,HourlyPrecipIn,Conditions,Clouds,dailyrainin,SoftwareType,DateUTC
2013-01-28 00:00:00,34.0,29.4,30.33,NW,315,0.0,0.0,83,0.00,,OVC065,0.00,VWS V14.01,2013-01-28 05:00:00,
2013-01-28 00:01:00,34.0,29.4,30.33,NW,315,0.0,0.0,83,0.00,,OVC060,0.00,VWS V14.01,2013-01-28 05:01:00,
2013-01-28 00:02:00,34.0,29.1,30.33,NW,315,0.0,0.0,82,0.00,,OVC060,0.00,VWS V14.01,2013-01-28 05:02:00,
2013-01-28 00:07:00,34.0,29.4,30.33,NW,315,0.0,0.0,83,0.00,,OVC060,0.00,VWS V14.01,2013-01-28 05:07:00,
2013-01-28 00:12:00,34.0,30.2,30.33,NW,315,0.0,0.0,86,0.00,,OVC060,0.00,VWS V14.01,2013-01-28 05:12:00,
2013-01-28 00:17:00,34.0,30.5,30.33,NNE,22,2.0,2.0,87,0.00,,OVC060,0.00,VWS V14.01,2013-01-28 05:17:00,
2013-01-28 00:22:00,34.0,30.8,30.33,East,90,1.1,2.2,88,0.00,,OVC060,0.00,VWS V14.01,2013-01-28 05:22:00,
2013-01-28 00:27:00,33.8,30.1,30.33,South,180,2.0,2.5,86,0.00,,OVC060,0.00,VWS V14.01,2013-01-28 05:27:00,
2013-01-28 00:32:00,33.8,30.1,30.33,South,180,0.0,1.6,86,0.00,,OVC060,0.00,VWS V14.01,2013-01-28 05:32:00,
2013-01-28 00:37:00,34.0,30.5,30.33,South,180,0.0,0.0,87,0.00,,OVC060,0.00,VWS V14.01,2013-01-28 05:37:00,
2013-01-28 00:42:00,34.0,30.5,30.33,South,180,0.0,1.1,87,0.00,,OVC060,0.00,VWS V14.01,2013-01-28 05:42:00,
2013-01-28 00:47:00,34.0,30.5,30.30,SW,225,0.0,0.0,87,0.00,,OVC060,0.00,VWS V14.01,2013-01-28 05:47:00,
2013-01-28 00:52:00,34.0,30.2,30.30,SW,225,0.0,1.1,86,0.00,,OVC060,0.00,VWS V14.01,2013-01-28 05:52:00,
2013-01-28 00:57:00,34.0,30.2,30.30,SW,225,0.0,0.0,86,0.00,,OVC060,0.00,VWS V14.01,2013-01-28 05:57:00,
2013-01-28 01:02:00,34.0,30.5,30.30,SW,225,0.0,0.0,87,0.00,,-RA,0.00,VWS V14.01,2013-01-28 06:02:00,
2013-01-28 01:07:00,34.2,30.7,30.30,SW,225,0.0,0.0,87,0.04,,-RA,0.04,VWS V14.01,2013-01-28 06:07:00,
2013-01-28 01:12:00,34.2,31.0,30.30,WNW,292,0.0,0.0,88,0.04,,-RA,0.04,VWS V14.01,2013-01-28 06:12:00,
2013-01-28 01:17:00,34.3,31.2,30.30,West,270,0.0,0.0,88,0.04,,-RA,0.04,VWS V14.01,2013-01-28 06:17:00,
2013-01-28 01:22:00,34.3,31.2,30.30,WNW,292,0.0,0.0,88,0.04,,-RA,0.04,VWS V14.01,2013-01-28 06:22:00,
2013-01-28 01:27:00,34.3,31.2,30.30,WNW,292,0.0,0.0,88,0.04,,-RA,0.04,VWS V14.01,2013-01-28 06:27:00,
2013-01-28 01:32:00,34.3,31.2,30.30,SW,225,0.0,0.0,88,0.08,,-RA,0.08,VWS V14.01,2013-01-28 06:32:00,
2013-01-28 01:37:00,34.3,31.2,30.30,SW,225,0.0,0.0,88,0.08,,-RA,0.08,VWS V14.01,2013-01-28 06:37:00,
2013-01-28 01:42:00,34.3,31.4,30.30,WSW,248,0.0,0.0,89,0.08,,-RA,0.08,VWS V14.01,2013-01-28 06:42:00,
2013-01-28 01:47:00,34.3,31.4,30.27,WSW,248,0.0,0.0,89,0.08,,-RA,0.08,VWS V14.01,2013-01-28 06:47:00,
2013-01-28 01:52:00,34.3,31.4,30.27,WSW,248,0.0,0.0,89,0.08,,-RA,0.08,VWS V14.01,2013-01-28 06:52:00,
2013-01-28 01:57:00,34.3,31.4,30.27,South,180,2.0,2.0,89,0.08,,-RA,0.08,VWS V14.01,2013-01-28 06:57:00,
2013-01-28 02:02:00,34.3,31.4,30.27,South,180,0.0,0.0,89,0.08,,-RA,0.08,VWS V14.01,2013-01-28 07:02:00,
2013-01-28 02:07:00,34.3,31.7,30.27,SSW,202,0.0,0.0,90,0.04,,-RA,0.08,VWS V14.01,2013-01-28 07:07:00,
2013-01-28 02:12:00,34.5,31.6,30.27,SSW,202,0.0,0.0,89,0.04,,-RA,0.08,VWS V14.01,2013-01-28 07:12:00,
2013-01-28 02:17:00,34.5,31.6,30.27,South,180,2.0,2.0,89,0.04,,-RA,0.08,VWS V14.01,2013-01-28 07:17:00,
2013-01-28 02:22:00,34.5,32.2,30.27,South,180,0.0,0.0,91,0.04,,-RA,0.08,VWS V14.01,2013-01-28 07:22:00,
2013-01-28 02:27:00,34.5,32.2,30.27,South,180,0.0,0.0,91,0.04,,-RA,0.08,VWS V14.01,2013-01-28 07:27:00,
2013-01-28 02:32:00,34.7,32.3,30.27,SSW,202,0.0,0.0,91,0.00,,-RA,0.08,VWS V14.01,2013-01-28 07:32:00,
2013-01-28 02:37:00,34.5,31.9,30.27,SSW,202,0.0,0.0,90,0.00,,-RA,0.08,VWS V14.01,2013-01-28 07:37:00,
2013-01-28 02:42:00,34.7,32.1,30.27,SW,225,0.0,0.0,90,0.04,,-RA,0.12,VWS V14.01,2013-01-28 07:42:00,
2013-01-28 02:47:00,34.7,32.1,30.27,South,180,0.9,1.6,90,0.04,,-RA,0.12,VWS V14.01,2013-01-28 07:47:00,
2013-01-28 02:52:00,34.9,32.5,30.27,SSW,202,0.0,0.0,91,0.04,,-RA,0.12,VWS V14.01,2013-01-28 07:52:00,
2013-01-28 02:57:00,34.9,32.5,30.27,SSW,202,0.0,0.0,91,0.04,,-RA,0.12,VWS V14.01,2013-01-28 07:57:00,
2013-01-28 03:02:00,34.9,32.8,30.24,SE,135,1.1,1.1,92,0.04,,-RA,0.12,VWS V14.01,2013-01-28 08:02:00,
2013-01-28 03:07:00,34.9,32.8,30.24,South,180,0.0,0.0,92,0.04,,-RA,0.12,VWS V14.01,2013-01-28 08:07:00,
2013-01-28 03:12:00,34.9,32.5,30.24,ESE,112,0.0,0.0,91,0.04,,-RA,0.12,VWS V14.01,2013-01-28 08:12:00,
2013-01-28 03:17:00,34.9,33.3,30.27,East,90,0.9,2.5,94,0.04,,-RA,0.12,VWS V14.01,2013-01-28 08:17:00,
2013-01-28 03:22:00,35.1,33.5,30.27,East,90,1.3,2.5,94,0.04,,-RA,0.12,VWS V14.01,2013-01-28 08:22:00,
2013-01-28 03:27:00,35.1,33.5,30.27,NW,315,0.0,2.7,94,0.04,,-RA,0.12,VWS V14.01,2013-01-28 08:27:00,
2013-01-28 03:32:00,35.1,33.2,30.27,ENE,68,2.5,2.9,93,0.04,,-RA,0.12,VWS V14.01,2013-01-28 08:32:00,
2013-01-28 03:37:00,35.2,34.0,30.27,NE,45,1.6,3.1,95,0.04,,-RA,0.12,VWS V14.01,2013-01-28 08:37:00,
2013-01-28 03:42:00,35.6,34.8,30.27,East,90,2.5,2.7,97,0.00,,-RA,0.12,VWS V14.01,2013-01-28 08:42:00,
2013-01-28 03:47:00,35.8,35.3,30.27,NNE,22,3.1,3.4,98,0.04,,-RA,0.16,VWS V14.01,2013-01-28 08:47:00,
2013-01-28 03:52:00,36.1,35.6,30.27,NE,45,1.3,2.7,98,0.04,,-RA,0.16,VWS V14.01,2013-01-28 08:52:00,
2013-01-28 03:57:00,36.3,35.8,30.27,SSW,202,0.0,3.1,98,0.04,,-RA,0.16,VWS V14.01,2013-01-28 08:57:00,
2013-01-28 04:02:00,35.8,34.8,30.24,NNE,22,1.3,1.6,96,0.04,,-RA,0.16,VWS V14.01,2013-01-28 09:02:00,
2013-01-28 04:07:00,36.1,35.1,30.24,NE,45,2.0,2.5,96,0.04,,-RA,0.16,VWS V14.01,2013-01-28 09:07:00,
2013-01-28 04:12:00,36.5,35.7,30.24,NE,45,0.0,2.9,97,0.04,,-RA,0.16,VWS V14.01,2013-01-28 09:12:00,
2013-01-28 04:17:00,36.9,36.3,30.30,NE,45,2.5,3.1,98,0.04,,-RA,0.16,VWS V14.01,2013-01-28 09:17:00,
2013-01-28 04:22:00,37.0,36.5,30.30,North,0,2.2,3.1,98,0.04,,-RA,0.16,VWS V14.01,2013-01-28 09:22:00,
2013-01-28 04:27:00,37.4,36.9,30.30,North,0,1.1,5.4,98,0.04,,-RA,0.16,VWS V14.01,2013-01-28 09:27:00,
2013-01-28 04:32:00,37.4,36.9,30.24,North,0,1.1,2.9,98,0.04,,-RA,0.16,VWS V14.01,2013-01-28 09:32:00,
2013-01-28 04:37:00,37.4,36.9,30.24,South,180,1.3,2.0,98,0.04,,-RA,0.16,VWS V14.01,2013-01-28 09:37:00,
2013-01-28 04:42:00,37.2,36.7,30.24,East,90,1.6,3.6,98,0.04,,-RA,0.16,VWS V14.01,2013-01-28 09:42:00,
2013-01-28 04:47:00,37.0,36.5,30.30,NE,45,2.0,3.1,98,0.00,,-RA,0.16,VWS V14.01,2013-01-28 09:47:00,
2013-01-28 04:52:00,37.4,36.9,30.30,NNW,338,2.0,3.8,98,0.00,,-RA,0.16,VWS V14.01,2013-01-28 09:52:00,
2013-01-28 04:57:00,37.2,36.7,30.30,NE,45,2.2,2.7,98,0.00,,-RA,0.16,VWS V14.01,2013-01-28 09:57:00,
2013-01-28 05:02:00,37.2,36.7,30.27,SW,225,2.0,2.5,98,0.00,,RA,0.16,VWS V14.01,2013-01-28 10:02:00,
2013-01-28 05:07:00,37.0,36.5,30.27,NE,45,1.6,2.5,98,0.00,,RA,0.16,VWS V14.01,2013-01-28 10:07:00,
2013-01-28 05:12:00,37.4,36.9,30.27,North,0,2.0,2.2,98,0.00,,RA,0.16,VWS V14.01,2013-01-28 10:12:00,
2013-01-28 05:17:00,37.2,36.7,30.27,NE,45,0.0,2.5,98,0.00,,RA,0.16,VWS V14.01,2013-01-28 10:17:00,
2013-01-28 05:22:00,37.0,36.5,30.27,SSE,158,1.3,2.2,98,0.00,,RA,0.16,VWS V14.01,2013-01-28 10:22:00,
2013-01-28 05:27:00,37.2,36.7,30.27,South,180,0.0,0.0,98,0.00,,RA,0.16,VWS V14.01,2013-01-28 10:27:00,
2013-01-28 05:32:00,37.0,36.5,30.27,ESE,112,0.0,0.0,98,0.00,,RA,0.16,VWS V14.01,2013-01-28 10:32:00,
2013-01-28 05:37:00,37.0,36.3,30.27,East,90,1.6,1.6,97,0.00,,RA,0.16,VWS V14.01,2013-01-28 10:37:00,
2013-01-28 05:42:00,37.2,36.7,30.27,South,180,0.0,2.7,98,0.00,,RA,0.16,VWS V14.01,2013-01-28 10:42:00,
2013-01-28 05:47:00,37.0,36.5,30.27,West,270,1.3,1.3,98,0.00,,RA,0.16,VWS V14.01,2013-01-28 10:47:00,
2013-01-28 05:52:00,37.0,36.5,30.27,WSW,248,0.0,0.0,98,0.00,,RA,0.16,VWS V14.01,2013-01-28 10:52:00,
2013-01-28 05:57:00,36.9,36.1,30.27,WSW,248,0.0,0.0,97,0.00,,RA,0.16,VWS V14.01,2013-01-28 10:57:00,
2013-01-28 06:02:00,36.9,36.1,30.27,WSW,248,0.0,0.0,97,0.00,,OVC018,0.16,VWS V14.01,2013-01-28 11:02:00,
2013-01-28 06:07:00,36.9,36.1,30.27,NW,315,0.9,1.3,97,0.00,,OVC018,0.16,VWS V14.01,2013-01-28 11:07:00,
2013-01-28 06:12:00,36.9,35.8,30.27,SSW,202,1.3,2.2,96,0.00,,OVC018,0.16,VWS V14.01,2013-01-28 11:12:00,
2013-01-28 06:17:00,36.7,35.7,30.30,North,0,0.9,1.3,96,0.00,,OVC018,0.16,VWS V14.01,2013-01-28 11:17:00,
2013-01-28 06:22:00,36.9,35.8,30.30,NNE,22,1.6,2.7,96,0.00,,OVC018,0.16,VWS V14.01,2013-01-28 11:22:00,
2013-01-28 06:27:00,37.0,36.3,30.30,NE,45,0.9,3.6,97,0.00,,OVC018,0.16,VWS V14.01,2013-01-28 11:27:00,
2013-01-28 06:32:00,36.9,36.1,30.24,South,180,0.9,2.7,97,0.00,,OVC018,0.16,VWS V14.01,2013-01-28 11:32:00,
2013-01-28 06:37:00,36.5,35.5,30.24,SE,135,0.0,1.3,96,0.00,,OVC018,0.16,VWS V14.01,2013-01-28 11:37:00,
2013-01-28 06:42:00,36.3,35.3,30.24,SW,225,0.0,2.5,96,0.00,,OVC018,0.16,VWS V14.01,2013-01-28 11:42:00,
2013-01-28 06:47:00,36.1,35.1,30.27,ENE,68,1.1,3.1,96,0.00,,OVC018,0.16,VWS V14.01,2013-01-28 11:47:00,
2013-01-28 06:52:00,36.0,34.9,30.27,East,90,0.0,0.9,96,0.00,,OVC018,0.16,VWS V14.01,2013-01-28 11:52:00,
2013-01-28 06:57:00,35.8,34.8,30.27,SW,225,0.0,2.5,96,0.00,,OVC018,0.16,VWS V14.01,2013-01-28 11:57:00,
2013-01-28 07:02:00,35.8,34.8,30.27,NNE,22,2.5,2.7,96,0.00,,OVC020,0.16,VWS V14.01,2013-01-28 12:02:00,
2013-01-28 07:07:00,37.4,36.9,30.27,NE,45,3.4,4.7,98,0.00,,OVC020,0.16,VWS V14.01,2013-01-28 12:07:00,
2013-01-28 07:17:00,38.5,38.0,30.27,ESE,112,2.7,4.3,98,0.00,,OVC020,0.16,VWS V14.01,2013-01-28 12:17:00,
2013-01-28 07:22:00,37.8,37.2,30.27,NE,45,2.5,3.1,98,0.00,,OVC020,0.16,VWS V14.01,2013-01-28 12:22:00,
2013-01-28 07:27:00,37.4,36.9,30.27,NE,45,1.1,2.5,98,0.00,,OVC020,0.16,VWS V14.01,2013-01-28 12:27:00,
2013-01-28 07:32:00,37.0,36.5,30.27,NE,45,0.0,1.3,98,0.00,,OVC020,0.16,VWS V14.01,2013-01-28 12:32:00,
2013-01-28 07:37:00,36.5,36.0,30.27,NNW,338,1.3,1.3,98,0.00,,OVC020,0.16,VWS V14.01,2013-01-28 12:37:00,
2013-01-28 07:42:00,36.3,35.5,30.27,NE,45,0.9,2.7,97,0.00,,OVC020,0.16,VWS V14.01,2013-01-28 12:42:00,
2013-01-28 07:47:00,36.3,35.8,30.27,SSE,158,1.1,2.5,98,0.00,,OVC020,0.16,VWS V14.01,2013-01-28 12:47:00,
2013-01-28 07:52:00,35.6,34.8,30.27,SW,225,0.0,0.0,97,0.00,,OVC020,0.16,VWS V14.01,2013-01-28 12:52:00,
2013-01-28 07:57:00,35.6,34.8,30.27,NNW,338,1.3,1.3,97,0.00,,OVC020,0.16,VWS V14.01,2013-01-28 12:57:00,
2013-01-28 08:02:00,36.0,35.2,30.27,NNW,338,1.3,2.9,97,0.00,,OVC020,0.16,VWS V14.01,2013-01-28 13:02:00,
2013-01-28 08:07:00,36.3,35.8,30.27,NE,45,1.3,2.7,98,0.00,,OVC020,0.16,VWS V14.01,2013-01-28 13:07:00,
2013-01-28 08:12:00,36.3,35.8,30.27,NE,45,1.3,2.7,98,0.00,,OVC020,0.16,VWS V14.01,2013-01-28 13:12:00,
2013-01-28 08:17:00,36.7,36.2,30.24,NE,45,2.7,2.9,98,0.00,,OVC020,0.16,VWS V14.01,2013-01-28 13:17:00,
2013-01-28 08:22:00,37.0,36.5,30.24,NNW,338,1.3,2.9,98,0.00,,OVC020,0.16,VWS V14.01,2013-01-28 13:22:00,
2013-01-28 08:27:00,37.6,37.1,30.24,NE,45,2.0,2.7,98,0.00,,OVC020,0.16,VWS V14.01,2013-01-28 13:27:00,
2013-01-28 08:32:00,38.1,37.6,30.27,NE,45,2.2,3.4,98,0.00,,OVC023,0.16,VWS V14.01,2013-01-28 13:32:00,
2013-01-28 08:37:00,38.5,38.0,30.27,East,90,1.1,2.7,98,0.00,,OVC023,0.16,VWS V14.01,2013-01-28 13:37:00,
2013-01-28 08:42:00,40.3,39.8,30.27,East,90,4.9,5.6,98,0.00,,OVC023,0.16,VWS V14.01,2013-01-28 13:42:00,
2013-01-28 08:47:00,41.9,41.4,30.27,East,90,5.6,5.6,98,0.00,,OVC023,0.16,VWS V14.01,2013-01-28 13:47:00,
2013-01-28 08:52:00,43.3,42.3,30.27,East,90,2.9,9.6,96,0.00,,OVC023,0.16,VWS V14.01,2013-01-28 13:52:00,
2013-01-28 08:57:00,44.1,40.5,30.27,SE,135,6.0,7.6,87,0.00,,OVC023,0.16,VWS V14.01,2013-01-28 13:57:00,
2013-01-28 09:02:00,45.0,38.5,30.27,ESE,112,4.9,9.2,78,0.00,,FEW021,0.16,VWS V14.01,2013-01-28 14:02:00,
2013-01-28 09:07:00,45.7,37.9,30.27,NE,45,3.6,7.8,74,0.00,,FEW021,0.16,VWS V14.01,2013-01-28 14:07:00,
2013-01-28 09:12:00,45.9,37.4,30.27,SE,135,6.7,9.8,72,0.00,,FEW021,0.16,VWS V14.01,2013-01-28 14:12:00,
2013-01-28 09:17:00,46.0,37.5,30.27,East,90,4.3,6.9,72,0.00,,FEW021,0.16,VWS V14.01,2013-01-28 14:17:00,
2013-01-28 09:22:00,46.4,37.2,30.27,SSE,158,5.6,8.5,70,0.00,,FEW021,0.16,VWS V14.01,2013-01-28 14:22:00,
2013-01-28 09:27:00,46.8,37.1,30.27,East,90,7.2,7.8,69,0.00,,FEW021,0.16,VWS V14.01,2013-01-28 14:27:00,
2013-01-28 09:32:00,46.9,36.9,30.27,East,90,3.4,10.7,68,0.00,,FEW021,0.16,VWS V14.01,2013-01-28 14:32:00,
2013-01-28 09:37:00,47.3,36.9,30.27,East,90,7.8,7.8,67,0.00,,FEW021,0.16,VWS V14.01,2013-01-28 14:37:00,
2013-01-28 09:42:00,47.5,36.7,30.27,East,90,5.8,9.6,66,0.00,,FEW021,0.16,VWS V14.01,2013-01-28 14:42:00,
2013-01-28 09:47:00,47.5,37.1,30.27,ENE,68,2.9,12.5,67,0.00,,FEW021,0.16,VWS V14.01,2013-01-28 14:47:00,
2013-01-28 09:52:00,47.7,36.9,30.27,East,90,5.4,9.0,66,0.00,,FEW021,0.16,VWS V14.01,2013-01-28 14:52:00,
2013-01-28 09:57:00,47.7,37.3,30.27,South,180,10.3,10.3,67,0.00,,FEW021,0.16,VWS V14.01,2013-01-28 14:57:00,
2013-01-28 10:02:00,47.8,37.0,30.27,East,90,3.8,9.8,66,0.00,,FEW041,0.16,VWS V14.01,2013-01-28 15:02:00,
2013-01-28 10:07:00,49.1,37.9,30.27,ESE,112,7.8,12.5,65,0.00,,FEW041,0.16,VWS V14.01,2013-01-28 15:07:00,
2013-01-28 10:12:00,49.5,37.4,30.27,East,90,6.5,7.6,63,0.00,,FEW041,0.16,VWS V14.01,2013-01-28 15:12:00,
2013-01-28 10:17:00,51.1,38.9,30.27,SSE,158,7.6,11.0,63,0.00,,FEW041,0.16,VWS V14.01,2013-01-28 15:17:00,
2013-01-28 10:22:00,51.6,37.8,30.27,East,90,6.5,10.7,59,0.00,,FEW041,0.16,VWS V14.01,2013-01-28 15:22:00,
2013-01-28 10:27:00,52.3,38.5,30.27,East,90,7.4,7.8,59,0.00,,FEW041,0.16,VWS V14.01,2013-01-28 15:27:00,
2013-01-28 10:32:00,53.2,38.9,30.27,East,90,7.6,9.0,58,0.00,,FEW041,0.16,VWS V14.01,2013-01-28 15:32:00,
2013-01-28 10:37:00,53.1,37.8,30.27,SE,135,6.5,8.1,56,0.00,,FEW041,0.16,VWS V14.01,2013-01-28 15:37:00,
2013-01-28 10:42:00,51.8,37.1,30.27,ESE,112,5.4,9.8,57,0.00,,FEW041,0.16,VWS V14.01,2013-01-28 15:42:00,
2013-01-28 10:47:00,51.6,38.2,30.27,South,180,10.1,10.1,60,0.00,,FEW041,0.16,VWS V14.01,2013-01-28 15:47:00,
2013-01-28 10:52:00,52.5,38.2,30.27,SE,135,6.5,10.5,58,0.00,,FEW041,0.16,VWS V14.01,2013-01-28 15:52:00,
2013-01-28 10:57:00,52.3,38.5,30.27,SE,135,2.7,9.4,59,0.00,,FEW041,0.16,VWS V14.01,2013-01-28 15:57:00,
2013-01-28 11:02:00,54.9,40.8,30.27,SE,135,7.6,8.7,59,0.00,,CLR,0.16,VWS V14.01,2013-01-28 16:02:00,
2013-01-28 11:07:00,54.5,39.6,30.27,South,180,5.6,10.7,57,0.00,,CLR,0.16,VWS V14.01,2013-01-28 16:07:00,
2013-01-28 11:12:00,54.0,39.1,30.27,SSW,202,7.8,13.2,57,0.00,,CLR,0.16,VWS V14.01,2013-01-28 16:12:00,
2013-01-28 11:17:00,54.7,40.2,30.24,SSE,158,5.8,12.3,58,0.00,,CLR,0.16,VWS V14.01,2013-01-28 16:17:00,
2013-01-28 11:22:00,54.9,39.9,30.24,East,90,6.3,8.7,57,0.00,,CLR,0.16,VWS V14.01,2013-01-28 16:22:00,
2013-01-28 11:27:00,54.9,39.9,30.24,SSE,158,6.0,16.8,57,0.00,,CLR,0.16,VWS V14.01,2013-01-28 16:27:00,
2013-01-28 11:32:00,54.7,39.8,30.27,ESE,112,6.5,12.1,57,0.00,,CLR,0.16,VWS V14.01,2013-01-28 16:32:00,
2013-01-28 11:37:00,54.9,40.4,30.27,South,180,5.6,11.0,58,0.00,,CLR,0.16,VWS V14.01,2013-01-28 16:37:00,
2013-01-28 11:42:00,54.7,39.8,30.27,South,180,7.6,7.8,57,0.00,,CLR,0.16,VWS V14.01,2013-01-28 16:42:00,
2013-01-28 11:47:00,55.4,40.0,30.24,SE,135,7.8,12.8,56,0.00,,CLR,0.16,VWS V14.01,2013-01-28 16:47:00,
2013-01-28 11:52:00,55.9,40.0,30.24,SSE,158,8.1,14.5,55,0.00,,CLR,0.16,VWS V14.01,2013-01-28 16:52:00,
2013-01-28 11:57:00,55.2,39.8,30.24,South,180,7.6,12.5,56,0.00,,CLR,0.16,VWS V14.01,2013-01-28 16:57:00,
2013-01-28 12:02:00,55.0,40.1,30.21,SE,135,6.3,10.7,57,0.00,,SCT060,0.16,VWS V14.01,2013-01-28 17:02:00,
2013-01-28 12:07:00,55.4,40.4,30.21,SSW,202,6.3,11.9,57,0.00,,SCT060,0.16,VWS V14.01,2013-01-28 17:07:00,
2013-01-28 12:12:00,56.3,41.3,30.21,SSE,158,7.4,10.3,57,0.00,,SCT060,0.16,VWS V14.01,2013-01-28 17:12:00,
2013-01-28 12:17:00,55.9,40.0,30.21,South,180,8.7,11.0,55,0.00,,SCT060,0.16,VWS V14.01,2013-01-28 17:17:00,
2013-01-28 12:22:00,55.8,40.3,30.21,SE,135,4.0,10.5,56,0.00,,SCT060,0.16,VWS V14.01,2013-01-28 17:22:00,
2013-01-28 12:27:00,55.4,40.4,30.21,East,90,4.0,9.2,57,0.00,,SCT060,0.16,VWS V14.01,2013-01-28 17:27:00,
2013-01-28 12:32:00,55.0,40.1,30.21,South,180,5.6,10.7,57,0.00,,SCT060,0.16,VWS V14.01,2013-01-28 17:32:00,
2013-01-28 12:37:00,54.7,39.8,30.21,SE,135,7.4,10.3,57,0.00,,SCT060,0.16,VWS V14.01,2013-01-28 17:37:00,
2013-01-28 12:42:00,54.7,40.7,30.21,East,90,3.8,5.6,59,0.00,,SCT060,0.16,VWS V14.01,2013-01-28 17:42:00,
2013-01-28 12:47:00,54.7,40.7,30.21,South,180,5.6,5.6,59,0.00,,SCT060,0.16,VWS V14.01,2013-01-28 17:47:00,
2013-01-28 12:52:00,54.7,41.1,30.21,NNE,22,3.8,6.0,60,0.00,,SCT060,0.16,VWS V14.01,2013-01-28 17:52:00,
2013-01-28 12:57:00,54.7,40.7,30.21,East,90,3.4,6.3,59,0.00,,SCT060,0.16,VWS V14.01,2013-01-28 17:57:00,
2013-01-28 13:02:00,54.9,40.8,30.21,SSE,158,8.5,8.5,59,0.00,,BKN070,0.16,VWS V14.01,2013-01-28 18:02:00,
2013-01-28 13:07:00,55.4,41.3,30.21,SE,135,5.4,7.4,59,0.00,,BKN070,0.16,VWS V14.01,2013-01-28 18:07:00,
2013-01-28 13:12:00,55.6,41.5,30.21,SSE,158,4.3,8.7,59,0.00,,BKN070,0.16,VWS V14.01,2013-01-28 18:12:00,
2013-01-28 13:17:00,56.3,41.7,30.21,SSE,158,4.9,8.1,58,0.00,,BKN070,0.16,VWS V14.01,2013-01-28 18:17:00,
2013-01-28 13:22:00,57.0,42.4,30.21,SE,135,4.0,9.8,58,0.00,,BKN070,0.16,VWS V14.01,2013-01-28 18:22:00,
2013-01-28 13:27:00,58.1,42.5,30.21,SE,135,5.4,10.5,56,0.00,,BKN070,0.16,VWS V14.01,2013-01-28 18:27:00,
2013-01-28 13:32:00,58.3,41.7,30.18,SE,135,6.0,8.5,54,0.00,,BKN070,0.16,VWS V14.01,2013-01-28 18:32:00,
2013-01-28 13:37:00,58.8,41.7,30.18,SE,135,6.0,8.5,53,0.00,,BKN070,0.16,VWS V14.01,2013-01-28 18:37:00,
2013-01-28 13:42:00,60.1,42.9,30.18,South,180,7.8,10.5,53,0.00,,BKN070,0.16,VWS V14.01,2013-01-28 18:42:00,
2013-01-28 13:47:00,61.0,42.7,30.15,SE,135,5.6,12.3,51,0.00,,BKN070,0.16,VWS V14.01,2013-01-28 18:47:00,
2013-01-28 13:52:00,61.3,43.1,30.15,South,180,6.3,8.5,51,0.00,,BKN070,0.16,VWS V14.01,2013-01-28 18:52:00,
2013-01-28 13:57:00,62.4,43.0,30.15,South,180,6.0,10.3,49,0.00,,BKN070,0.16,VWS V14.01,2013-01-28 18:57:00,
2013-01-28 14:02:00,61.3,41.5,30.15,SSE,158,9.6,17.2,48,0.00,,OVC046,0.16,VWS V14.01,2013-01-28 19:02:00,
2013-01-28 14:07:00,61.9,42.5,30.15,SSE,158,5.8,11.2,49,0.00,,OVC046,0.16,VWS V14.01,2013-01-28 19:07:00,
2013-01-28 14:12:00,61.5,42.2,30.15,SSE,158,8.1,17.7,49,0.00,,OVC046,0.16,VWS V14.01,2013-01-28 19:12:00,
2013-01-28 14:17:00,61.9,42.0,30.15,WSW,248,5.4,13.2,48,0.00,,OVC046,0.16,VWS V14.01,2013-01-28 19:17:00,
2013-01-28 14:22:00,62.8,42.3,30.15,North,0,12.1,15.9,47,0.00,,OVC046,0.16,VWS V14.01,2013-01-28 19:22:00,
2013-01-28 14:27:00,64.6,43.9,30.15,South,180,3.8,9.6,47,0.00,,OVC046,0.16,VWS V14.01,2013-01-28 19:27:00,
2013-01-28 14:32:00,64.4,43.2,30.15,NW,315,3.8,9.8,46,0.00,,OVC046,0.16,VWS V14.01,2013-01-28 19:32:00,
2013-01-28 14:37:00,63.5,42.4,30.15,South,180,11.0,18.1,46,0.00,,OVC046,0.16,VWS V14.01,2013-01-28 19:37:00,
2013-01-28 14:42:00,65.7,44.3,30.15,East,90,6.3,7.6,46,0.00,,OVC046,0.16,VWS V14.01,2013-01-28 19:42:00,
2013-01-28 14:47:00,66.6,44.6,30.15,NE,45,3.8,7.2,45,0.00,,OVC046,0.16,VWS V14.01,2013-01-28 19:47:00,
2013-01-28 14:52:00,67.5,44.8,30.15,SSW,202,8.5,9.6,44,0.00,,OVC046,0.16,VWS V14.01,2013-01-28 19:52:00,
2013-01-28 14:57:00,66.6,44.0,30.15,South,180,5.8,12.8,44,0.00,,OVC046,0.16,VWS V14.01,2013-01-28 19:57:00,
2013-01-28 15:02:00,65.1,42.7,30.15,SW,225,5.8,12.1,44,0.00,,OVC075,0.16,VWS V14.01,2013-01-28 20:02:00,
2013-01-28 15:07:00,63.1,42.6,30.15,East,90,1.6,13.2,47,0.00,,OVC075,0.16,VWS V14.01,2013-01-28 20:07:00,
2013-01-28 15:12:00,63.9,43.3,30.15,ESE,112,2.9,5.8,47,0.00,,OVC075,0.16,VWS V14.01,2013-01-28 20:12:00,
2013-01-28 15:17:00,64.8,44.6,30.15,SSE,158,2.7,5.8,48,0.00,,OVC075,0.16,VWS V14.01,2013-01-28 20:17:00,
2013-01-28 15:22:00,64.4,43.2,30.15,East,90,7.8,15.2,46,0.00,,OVC075,0.16,VWS V14.01,2013-01-28 20:22:00,
2013-01-28 15:27:00,63.5,43.5,30.15,South,180,4.0,10.7,48,0.00,,OVC075,0.16,VWS V14.01,2013-01-28 20:27:00,
2013-01-28 15:32:00,64.6,43.9,30.15,SW,225,4.7,6.5,47,0.00,,OVC075,0.16,VWS V14.01,2013-01-28 20:32:00,
2013-01-28 15:37:00,63.9,42.7,30.15,SSE,158,7.8,13.9,46,0.00,,OVC075,0.16,VWS V14.01,2013-01-28 20:37:00,
2013-01-28 15:42:00,63.5,42.9,30.15,South,180,6.0,14.1,47,0.00,,OVC075,0.16,VWS V14.01,2013-01-28 20:42:00,
2013-01-28 15:47:00,63.9,43.3,30.15,South,180,3.6,6.3,47,0.00,,OVC075,0.16,VWS V14.01,2013-01-28 20:47:00,
2013-01-28 15:52:00,63.5,43.5,30.15,South,180,2.5,10.3,48,0.00,,OVC075,0.16,VWS V14.01,2013-01-28 20:52:00,
2013-01-28 15:57:00,63.9,43.8,30.15,SW,225,2.5,2.5,48,0.00,,OVC075,0.16,VWS V14.01,2013-01-28 20:57:00,
2013-01-28 16:02:00,62.4,43.0,30.15,SSE,158,8.7,8.7,49,0.00,,SCT044,0.16,VWS V14.01,2013-01-28 21:02:00,
2013-01-28 16:07:00,61.9,43.1,30.15,ESE,112,1.3,4.9,50,0.00,,SCT044,0.16,VWS V14.01,2013-01-28 21:07:00,
2013-01-28 16:12:00,61.2,43.4,30.15,ENE,68,1.6,7.6,52,0.00,,SCT044,0.16,VWS V14.01,2013-01-28 21:12:00,
2013-01-28 16:17:00,60.3,43.6,30.15,South,180,3.6,7.8,54,0.00,,SCT044,0.16,VWS V14.01,2013-01-28 21:17:00,
2013-01-28 16:22:00,59.7,43.5,30.15,SE,135,4.0,8.7,55,0.00,,SCT044,0.16,VWS V14.01,2013-01-28 21:22:00,
2013-01-28 16:27:00,59.4,44.1,30.15,SSE,158,5.4,6.3,57,0.00,,SCT044,0.16,VWS V14.01,2013-01-28 21:27:00,
2013-01-28 16:32:00,58.5,44.6,30.15,ESE,112,3.4,8.1,60,0.00,,SCT044,0.16,VWS V14.01,2013-01-28 21:32:00,
2013-01-28 16:37:00,58.3,44.9,30.15,SE,135,4.3,8.5,61,0.00,,SCT044,0.16,VWS V14.01,2013-01-28 21:37:00,
2013-01-28 16:42:00,57.6,45.5,30.15,SSE,158,5.6,7.4,64,0.00,,SCT044,0.16,VWS V14.01,2013-01-28 21:42:00,
2013-01-28 16:47:00,57.2,46.0,30.15,SE,135,2.7,4.9,66,0.00,,SCT044,0.16,VWS V14.01,2013-01-28 21:47:00,
2013-01-28 16:52:00,56.8,46.4,30.15,NE,45,3.8,5.6,68,0.00,,SCT044,0.16,VWS V14.01,2013-01-28 21:52:00,
2013-01-28 16:57:00,56.5,46.8,30.15,SSE,158,1.3,6.0,70,0.00,,SCT044,0.16,VWS V14.01,2013-01-28 21:57:00,
2013-01-28 17:02:00,55.9,46.7,30.12,SSE,158,3.6,4.9,71,0.00,,BKN090,0.16,VWS V14.01,2013-01-28 22:02:00,
2013-01-28 17:07:00,55.0,47.3,30.12,ENE,68,2.0,3.1,75,0.00,,BKN090,0.16,VWS V14.01,2013-01-28 22:07:00,
2013-01-28 17:12:00,54.7,47.6,30.12,East,90,5.4,5.4,77,0.00,,BKN090,0.16,VWS V14.01,2013-01-28 22:12:00,
2013-01-28 17:17:00,54.5,47.8,30.15,South,180,2.2,7.8,78,0.00,,BKN090,0.16,VWS V14.01,2013-01-28 22:17:00,
2013-01-28 17:22:00,54.3,48.0,30.15,SE,135,5.4,5.4,79,0.00,,BKN090,0.16,VWS V14.01,2013-01-28 22:22:00,
2013-01-28 17:27:00,54.1,48.5,30.15,East,90,2.9,6.5,81,0.00,,BKN090,0.16,VWS V14.01,2013-01-28 22:27:00,
2013-01-28 17:32:00,54.0,48.3,30.18,SSE,158,3.4,3.6,81,0.00,,BKN090,0.16,VWS V14.01,2013-01-28 22:32:00,
2013-01-28 17:37:00,53.6,48.6,30.18,SSE,158,6.3,6.5,83,0.00,,BKN090,0.16,VWS V14.01,2013-01-28 22:37:00,
2013-01-28 17:42:00,53.4,48.7,30.18,SE,135,3.1,4.7,84,0.04,,BKN090,0.20,VWS V14.01,2013-01-28 22:42:00,
2013-01-28 17:47:00,53.2,48.8,30.18,South,180,3.4,6.0,85,0.04,,BKN090,0.20,VWS V14.01,2013-01-28 22:47:00,
2013-01-28 17:52:00,53.1,49.0,30.18,SE,135,4.3,5.8,86,0.04,,BKN090,0.20,VWS V14.01,2013-01-28 22:52:00,
2013-01-28 17:57:00,52.9,49.4,30.18,East,90,5.6,5.6,88,0.04,,BKN090,0.20,VWS V14.01,2013-01-28 22:57:00,
2013-01-28 18:02:00,52.7,49.5,30.18,ENE,68,2.0,8.7,89,0.04,,-RA,0.00,VWS V14.01,2013-01-28 23:02:00,
2013-01-28 18:07:00,52.5,49.7,30.18,SSE,158,4.3,11.0,90,0.04,,-RA,0.20,VWS V14.01,2013-01-28 23:07:00,
2013-01-28 18:12:00,52.5,50.0,30.18,East,90,4.9,10.1,91,0.04,,-RA,0.20,VWS V14.01,2013-01-28 23:12:00,
2013-01-28 18:17:00,52.5,49.7,30.18,SE,135,11.0,11.0,90,0.04,,-RA,0.20,VWS V14.01,2013-01-28 23:17:00,
2013-01-28 18:22:00,52.5,49.4,30.21,ENE,68,10.7,12.8,89,0.04,,-RA,0.20,VWS V14.01,2013-01-28 23:22:00,
2013-01-28 18:27:00,52.5,49.1,30.21,East,90,4.9,7.6,88,0.04,,-RA,0.20,VWS V14.01,2013-01-28 23:27:00,
2013-01-28 18:32:00,52.5,49.4,30.21,ESE,112,5.8,8.1,89,0.04,,-RA,0.20,VWS V14.01,2013-01-28 23:32:00,
2013-01-28 18:37:00,52.2,49.3,30.21,SE,135,4.0,6.3,90,0.04,,-RA,0.20,VWS V14.01,2013-01-28 23:37:00,
2013-01-28 18:42:00,52.2,49.6,30.21,SE,135,2.9,5.4,91,0.04,,-RA,0.20,VWS V14.01,2013-01-28 23:42:00,
2013-01-28 18:47:00,52.2,49.6,30.21,SSE,158,4.0,9.8,91,0.00,,-RA,0.20,VWS V14.01,2013-01-28 23:47:00,
2013-01-28 18:52:00,52.2,49.6,30.21,East,90,7.4,11.0,91,0.00,,-RA,0.20,VWS V14.01,2013-01-28 23:52:00,
2013-01-28 18:57:00,52.2,49.6,30.21,SE,135,5.4,8.1,91,0.00,,-RA,0.20,VWS V14.01,2013-01-28 23:57:00,
2013-01-28 19:02:00,52.0,49.4,30.21,SSE,158,8.1,8.1,91,0.00,,-RA,0.20,VWS V14.01,2013-01-29 00:02:00,
2013-01-28 19:07:00,52.0,49.4,30.18,SSE,158,6.3,7.6,91,0.00,,-RA,0.20,VWS V14.01,2013-01-29 00:07:00,
2013-01-28 19:12:00,52.0,49.7,30.18,SE,135,5.4,7.6,92,0.00,,-RA,0.20,VWS V14.01,2013-01-29 00:12:00,
2013-01-28 19:17:00,52.0,49.7,30.18,SE,135,3.8,9.0,92,0.00,,-RA,0.20,VWS V14.01,2013-01-29 00:17:00,
2013-01-28 19:22:00,52.0,49.7,30.21,East,90,7.4,7.4,92,0.00,,-RA,0.20,VWS V14.01,2013-01-29 00:22:00,
2013-01-28 19:27:00,51.8,49.5,30.21,SE,135,4.9,10.1,92,0.00,,-RA,0.20,VWS V14.01,2013-01-29 00:27:00,
2013-01-28 19:32:00,51.8,49.5,30.21,South,180,3.8,6.5,92,0.00,,-RA,0.20,VWS V14.01,2013-01-29 00:32:00,
2013-01-28 19:37:00,51.8,49.5,30.18,ENE,68,5.4,9.8,92,0.00,,-RA,0.20,VWS V14.01,2013-01-29 00:37:00,
2013-01-28 19:42:00,51.6,49.7,30.18,East,90,4.3,10.3,93,0.00,,-RA,0.20,VWS V14.01,2013-01-29 00:42:00,
2013-01-28 19:47:00,51.6,49.7,30.18,ESE,112,4.3,8.7,93,0.00,,-RA,0.20,VWS V14.01,2013-01-29 00:47:00,
2013-01-28 19:52:00,51.8,49.5,30.18,ESE,112,5.4,7.6,92,0.00,,-RA,0.20,VWS V14.01,2013-01-29 00:52:00,
2013-01-28 19:57:00,51.6,49.4,30.18,East,90,3.6,9.8,92,0.00,,-RA,0.20,VWS V14.01,2013-01-29 00:57:00,
2013-01-28 20:02:00,51.4,49.5,30.18,SE,135,2.5,5.8,93,0.00,,-RA,0.20,VWS V14.01,2013-01-29 01:02:00,
2013-01-28 20:07:00,51.4,49.5,30.18,SSE,158,8.1,8.7,93,0.00,,-RA,0.20,VWS V14.01,2013-01-29 01:07:00,
2013-01-28 20:12:00,51.4,49.5,30.18,SSE,158,6.3,12.8,93,0.00,,-RA,0.20,VWS V14.01,2013-01-29 01:12:00,
2013-01-28 20:17:00,51.4,49.8,30.18,ESE,112,6.5,11.0,94,0.00,,-RA,0.20,VWS V14.01,2013-01-29 01:17:00,
2013-01-28 20:22:00,51.4,49.5,30.21,SE,135,5.4,8.7,93,0.00,,-RA,0.20,VWS V14.01,2013-01-29 01:22:00,
2013-01-28 20:27:00,51.4,49.8,30.21,East,90,7.2,10.5,94,0.00,,-RA,0.20,VWS V14.01,2013-01-29 01:27:00,
2013-01-28 20:32:00,51.3,49.6,30.21,ENE,68,4.3,8.5,94,0.00,,-RA,0.20,VWS V14.01,2013-01-29 01:32:00,
2013-01-28 20:37:00,51.4,49.8,30.18,SSE,158,7.6,14.8,94,0.00,,-RA,0.20,VWS V14.01,2013-01-29 01:37:00,
2013-01-28 20:42:00,51.3,49.6,30.18,SE,135,3.4,7.2,94,0.00,,-RA,0.20,VWS V14.01,2013-01-29 01:42:00,
2013-01-28 20:47:00,51.3,49.6,30.18,East,90,8.1,8.1,94,0.00,,-RA,0.20,VWS V14.01,2013-01-29 01:47:00,
2013-01-28 20:52:00,51.3,49.3,30.18,South,180,4.0,6.3,93,0.00,,-RA,0.20,VWS V14.01,2013-01-29 01:52:00,
2013-01-28 20:57:00,51.4,49.2,30.18,SSE,158,3.8,9.4,92,0.00,,-RA,0.20,VWS V14.01,2013-01-29 01:57:00,
2013-01-28 21:02:00,51.6,49.1,30.18,SE,135,2.2,8.7,91,0.00,,-RA,0.20,VWS V14.01,2013-01-29 02:02:00,
2013-01-28 21:07:00,51.6,48.8,30.18,East,90,3.8,10.3,90,0.00,,-RA,0.20,VWS V14.01,2013-01-29 02:07:00,
2013-01-28 21:12:00,51.6,48.8,30.18,South,180,8.7,8.7,90,0.00,,-RA,0.20,VWS V14.01,2013-01-29 02:12:00,
2013-01-28 21:17:00,51.6,48.5,30.18,SSE,158,3.8,7.2,89,0.00,,-RA,0.20,VWS V14.01,2013-01-29 02:17:00,
2013-01-28 21:22:00,51.6,48.5,30.18,ESE,112,4.9,9.6,89,0.00,,-RA,0.20,VWS V14.01,2013-01-29 02:22:00,
2013-01-28 21:27:00,51.6,48.8,30.18,ENE,68,3.8,8.7,90,0.00,,-RA,0.20,VWS V14.01,2013-01-29 02:27:00,
2013-01-28 21:32:00,51.4,48.6,30.18,NE,45,2.7,5.4,90,0.00,,-RA,0.20,VWS V14.01,2013-01-29 02:32:00,
2013-01-28 21:37:00,51.3,48.7,30.18,NE,45,2.5,10.3,91,0.00,,-RA,0.20,VWS V14.01,2013-01-29 02:37:00,
2013-01-28 21:42:00,51.1,48.8,30.18,East,90,2.7,8.7,92,0.00,,-RA,0.20,VWS V14.01,2013-01-29 02:42:00,
2013-01-28 21:47:00,50.9,48.7,30.18,East,90,3.1,8.5,92,0.00,,-RA,0.20,VWS V14.01,2013-01-29 02:47:00,
2013-01-28 21:52:00,50.9,49.0,30.15,ENE,68,2.5,5.4,93,0.00,,-RA,0.20,VWS V14.01,2013-01-29 02:52:00,
2013-01-28 21:57:00,51.1,48.8,30.15,ESE,112,1.6,4.9,92,0.00,,-RA,0.20,VWS V14.01,2013-01-29 02:57:00,
2013-01-28 22:02:00,50.9,48.7,30.15,East,90,2.7,3.1,92,0.00,,,0.20,VWS V14.01,2013-01-29 03:02:00,
2013-01-28 22:07:00,51.1,48.8,30.18,East,90,3.4,7.2,92,0.00,,,0.20,VWS V14.01,2013-01-29 03:07:00,
2013-01-28 22:12:00,51.1,48.8,30.18,East,90,6.5,7.6,92,0.00,,,0.20,VWS V14.01,2013-01-29 03:12:00,
2013-01-28 22:17:00,51.1,48.8,30.18,East,90,7.2,7.2,92,0.00,,,0.20,VWS V14.01,2013-01-29 03:17:00,
2013-01-28 22:22:00,51.3,48.7,30.18,East,90,4.9,7.8,91,0.00,,,0.20,VWS V14.01,2013-01-29 03:22:00,
2013-01-28 22:27:00,51.3,48.7,30.18,ENE,68,2.9,5.6,91,0.00,,,0.20,VWS V14.01,2013-01-29 03:27:00,
2013-01-28 22:32:00,51.3,48.7,30.18,ENE,68,4.3,7.4,91,0.00,,,0.20,VWS V14.01,2013-01-29 03:32:00,
2013-01-28 22:37:00,51.1,48.2,30.18,East,90,2.7,5.8,90,0.00,,,0.20,VWS V14.01,2013-01-29 03:37:00,
2013-01-28 22:41:00,50.7,47.9,30.18,East,90,1.6,5.8,90,0.00,,,0.20,VWS V14.01,2013-01-29 03:41:00,
2013-01-28 22:46:00,50.9,48.1,30.18,NE,45,2.0,6.3,90,0.00,,,0.20,VWS V14.01,2013-01-29 03:46:00,
2013-01-28 22:51:00,50.9,48.1,30.18,East,90,2.7,3.1,90,0.00,,,0.20,VWS V14.01,2013-01-29 03:51:00,
2013-01-28 22:56:00,51.1,48.2,30.18,South,180,3.1,6.5,90,0.00,,,0.20,VWS V14.01,2013-01-29 03:56:00,
2013-01-28 23:01:00,51.3,48.1,30.18,NE,45,3.1,4.0,89,0.00,,OVC008,0.20,VWS V14.01,2013-01-29 04:01:00,
2013-01-28 23:06:00,51.1,48.0,30.15,East,90,3.1,8.7,89,0.00,,OVC008,0.20,VWS V14.01,2013-01-29 04:06:00,
2013-01-28 23:11:00,51.1,48.0,30.15,NE,45,2.7,4.3,89,0.00,,OVC008,0.20,VWS V14.01,2013-01-29 04:11:00,
2013-01-28 23:16:00,51.1,47.7,30.15,NE,45,2.7,4.9,88,0.00,,OVC008,0.20,VWS V14.01,2013-01-29 04:16:00,
2013-01-28 23:21:00,50.7,47.3,30.15,South,180,6.0,6.0,88,0.00,,OVC008,0.20,VWS V14.01,2013-01-29 04:21:00,
2013-01-28 23:26:00,51.1,48.0,30.15,West,270,0.9,7.2,89,0.00,,OVC008,0.20,VWS V14.01,2013-01-29 04:26:00,
2013-01-28 23:31:00,50.5,47.4,30.15,NNE,22,2.7,4.3,89,0.00,,OVC008,0.20,VWS V14.01,2013-01-29 04:31:00,
2013-01-28 23:36:00,50.5,47.4,30.15,ENE,68,2.5,6.0,89,0.00,,OVC008,0.20,VWS V14.01,2013-01-29 04:36:00,
2013-01-28 23:41:00,50.2,47.1,30.15,NW,315,0.9,2.5,89,0.00,,OVC008,0.20,VWS V14.01,2013-01-29 04:41:00,
2013-01-28 23:46:00,50.5,47.7,30.15,NE,45,1.3,6.3,90,0.00,,OVC008,0.20,VWS V14.01,2013-01-29 04:46:00,
2013-01-28 23:51:00,50.5,47.7,30.15,NE,45,2.5,6.3,90,0.00,,OVC008,0.20,VWS V14.01,2013-01-29 04:51:00,
2013-01-28 23:56:00,50.2,47.4,30.15,ENE,68,1.6,3.4,90,0.00,,OVC008,0.20,VWS V14.01,2013-01-29 04:56:00,